Location: *
(29.1167°S, 130.0000°E)
Time: 20:37:06
(UTC+00:00)

Cosmos 2061 Rocket - Pass Details

Date: 21 July 2019
Orbit: 966 x 1012 km, 82.9° (Epoch: 23 August)

Event Time Altitude Azimuth Distance (km) Brightness Sun altitude
Rises 09:39:20 0° 187° (S) 3,754 7.0 -12.5°
Reaches altitude 10° 09:41:54 10° 187° (S) 2,792 6.3 -13.0°
Maximum altitude 09:48:19 83° 274° (W) 1,009 4.1 -14.4°
Drops below altitude 10° 09:54:36 10° 1° (N) 2,729 6.5 -15.7°
Sets 09:57:04 0° 1° (N) 3,663 7.2 -16.2°
